This is the latest recevied weather packets stored in our database for station/object W1GK. If no packets are shown the sender has not sent any weather packets the latest 1 day(s).
| Time | Temp. | Humidity | Pressure | Rain* | Wind** | Luminosity | Snow |
|---|---|---|---|---|---|---|---|
| 1836274375 | 22.78° C | 72% | 1014.8 hPa | 0 mm | 0.89 m/s, 153° | 0 W/m² | - |
| 1836274225 | 22.78° C | 72% | 1014.9 hPa | 0 mm | 0.89 m/s, 138° | 0 W/m² | - |
| 1778066998 | 15.56° C | 38% | 1014.2 hPa | 0 mm | 1.79 m/s, 144° | 0 W/m² | - |
| 1778066397 | 16.11° C | 38% | 1014.1 hPa | 0 mm | 1.34 m/s, 165° | 0 W/m² | - |
| 1778065796 | 16.11° C | 38% | 1014 hPa | 0 mm | 2.68 m/s, 141° | 0 W/m² | - |
| 1778065200 | 16.11° C | 38% | 1013.9 hPa | 0 mm | 1.79 m/s, 211° | 0 W/m² | - |
| 1778064598 | 16.11° C | 38% | 1013.8 hPa | 0 mm | 2.68 m/s, 193° | 0 W/m² | - |
| 1778064000 | 16.11° C | 38% | 1013.8 hPa | 0 mm | 2.24 m/s, 190° | 0 W/m² | - |
| 1778063398 | 16.11° C | 37% | 1013.7 hPa | 0 mm | 1.79 m/s, 179° | 0 W/m² | - |
| 1778062797 | 16.11° C | 37% | 1013.5 hPa | 0 mm | 1.34 m/s, 192° | 0 W/m² | - |
| 1778062200 | 16.11° C | 37% | 1013.4 hPa | 0 mm | 2.68 m/s, 101° | 0 W/m² | - |
| 1778061597 | 16.11° C | 37% | 1013.3 hPa | 0 mm | 3.13 m/s, 147° | 0 W/m² | - |
| 1778060997 | 16.67° C | 37% | 1013.3 hPa | 0 mm | 2.68 m/s, 119° | 0 W/m² | - |
| 1778060396 | 16.67° C | 36% | 1013.2 hPa | 0 mm | 2.68 m/s, 153° | 0 W/m² | - |
| 1778059796 | 16.67° C | 36% | 1013.2 hPa | 0 mm | 2.24 m/s, 214° | 0 W/m² | - |
| 1778059197 | 16.67° C | 36% | 1013.1 hPa | 0 mm | 2.24 m/s, 175° | 0 W/m² | - |
| 1778058597 | 16.67° C | 36% | 1013.1 hPa | 0 mm | 2.68 m/s, 178° | 0 W/m² | - |
| 1778058000 | 16.67° C | 35% | 1013 hPa | 0 mm | 1.79 m/s, 155° | 0 W/m² | - |
| 1778057397 | 17.22° C | 35% | 1012.9 hPa | 0 mm | 2.24 m/s, 209° | 0 W/m² | - |
| 1778056797 | 17.22° C | 34% | 1012.8 hPa | 0 mm | 1.79 m/s, 225° | 0 W/m² | - |
| 1778056197 | 17.22° C | 34% | 1012.8 hPa | 0 mm | 1.79 m/s, 165° | 0 W/m² | - |
| 1778055598 | 17.22° C | 33% | 1012.8 hPa | 0 mm | 1.79 m/s, 197° | 0 W/m² | - |
| 1778054997 | 17.22° C | 33% | 1012.9 hPa | 0 mm | 2.24 m/s, 129° | 0 W/m² | - |
| 1778054401 | 17.22° C | 32% | 1013 hPa | 0 mm | 2.24 m/s, 158° | 0 W/m² | - |
| 1778053800 | 17.22° C | 32% | 1013 hPa | 0 mm | 2.24 m/s, 186° | 0 W/m² | - |
* Rain latest hour (hover to see other rain measurements)
** Current wind speed in m/s (hover to see current wind gust speed)